Location: Neuvy Saint Sepulchre
(46.5953°N, 1.8122°E)
Time: 12:50:39
(UTC+02:00)

ISS - Pass Details

Date: 19 September 2022
Orbit: 414 x 417 km, 51.6° (Epoch: 01 October)

Event Time Altitude Azimuth Distance (km) Brightness Sun altitude
Rises 22:07:34 0° 269° (W) 2,362 1.1 -22.4°
Reaches altitude 10° 22:09:45 10° 278° (W) 1,500 0.0 -22.7°
Enters shadow 22:12:48 38° 342° (NNW) 654 -2.5 -23.2°
